Regional Weather Roundup
Issued by NWS

Home | Current Version | Previous Version | Graphics & Text | Print | Product List | Glossary On
Versions: 1 2 3 4 5 6 7 8 9 10 11 12 13 14 15 16 17 18 19 20 21 22 23 24 25 26 27
000
ASUS45 KSLC 241010
RWRUT

UTAH REGIONAL WEATHER ROUNDUP
NATIONAL WEATHER SERVICE SALT LAKE CITY UT
400 AM MDT FRI MAR 24 2017

UTZ001>011-023>025-241100-

NORTHERN UTAH

CITY           SKY/WX    TMP DP  RH WIND       PRES   REMARKS
BRIGHAM CITY     N/A     36  33  87 NW5       30.16S WCI  32
HILL AFB       CLEAR     34  30  85 SE7       30.16R WCI  28
LOGAN          CLEAR     36  32  85 S5        30.15F WCI  32
OGDEN          CLEAR     33  31  92 SE7       30.16R WCI  27
SALT LAKE CITY CLEAR     35  33  92 SE7       30.16S WCI  29
WENDOVER       CLEAR     39  23  52 CALM      30.17R
HEBER CITY     CLOUDY    37  34  87 CALM      30.15R

$$

UTZ011>015-024>027-241100-

CENTRAL/NORTHEAST UTAH

CITY           SKY/WX    TMP DP  RH WIND       PRES   REMARKS
PROVO AIRPORT  PTCLDY    37  33  85 SE5       30.19R WCI  33
MOAB/CANYONLAN CLOUDY    47  31  53 NW14      30.01R
DELTA          CLEAR     30  30 100 SW3       30.20S
PRICE          PTCLDY    40  27  59 NW22G31   30.05R WCI  30
RICHFIELD      CLEAR     30  28  93 CALM      30.22
ROOSEVELT      CLOUDY    41  32  70 SE5       30.09R
VERNAL         CLOUDY    44  32  62 NE9       30.07R

$$

UTZ013>016-019>022-027-241100-

SOUTHERN UTAH

CITY           SKY/WX    TMP DP  RH WIND       PRES   REMARKS
BRYCE CANYON   PTCLDY    29  23  78 NW18G28   30.13S WCI  16
CEDAR CITY     CLEAR     27  25  92 CALM      30.16F
MILFORD        CLEAR    N/A N/A N/A S3        30.19S
ST GEORGE      MOSUNNY   44  37  76 W5        30.17S
HANKSVILLE     PTCLDY    45  28  53 NW9G16    30.07S
KANAB          CLEAR     30  28  93 N6        30.20  WCI  24
BLANDING       PTCLDY    41  27  57 W8G22     30.05R

$$

REGIONAL REPORTS     COLORADO/ARIZONA

CITY           SKY/WX    TMP DP  RH WIND       PRES   REMARKS
CRAIG, CO      CLOUDY    37  29  72 N21G29    29.98R WCI  26
GRAND JUNCTION CLOUDY    43  34  70 NW14      29.97R
RIFLE, CO      CLOUDY    45  33  63 NW22G30   29.94R
MONTROSE, CO   CLOUDY    43  34  70 NW23G39   29.93R
CORTEZ, CO     CLOUDY    39  31  72 NW18G28   29.94R WCI  30
COLORADO CITY    N/A     34  32  93 S3        30.19F
PAGE, AZ       CLEAR     49  32  52 W9G17     30.07R
GRAND CANYON   CLEAR     30  27  88 SW3       30.17R
KINGMAN, AZ    CLEAR     40  30  67 S5        30.15S
FLAGSTAFF, AZ  CLEAR     33  25  72 VRB5      30.12F WCI  29

$$

REGIONAL REPORTS    NEVADA/IDAHO/WYOMING

CITY           SKY/WX    TMP DP  RH WIND       PRES   REMARKS
LAS VEGAS, NV  CLEAR     53  32  44 SW6       30.12S
ELY, NY        CLEAR     25  20  81 SE7       30.19F WCI  17
ELKO, NV       CLEAR     31  25  78 NE5       30.14F WCI  26
POCATELLO, ID  CLEAR     33  25  72 S8        30.13F WCI  26
BURLEY, ID     CLEAR     36  26  67 SW12      30.11S WCI  28
EVANSTON, WY   CLOUDY    28  23  81 SW7       30.15R WCI  21
ROCK SPRINGS,  CLOUDY    37  30  75 N3        30.10R
KEMMERER, WY     N/A     30  27  86 W8        30.13R WCI  23

$$




USA.gov is the U.S. government's official web portal to all federal, state and local government web resources and services.